EDT,Max TemperatureF,Mean TemperatureF,Min TemperatureF,Max Dew PointF,MeanDew PointF,Min DewpointF,Max Humidity, Mean Humidity, Min Humidity, Max Sea Level PressureIn, Mean Sea Level PressureIn, Min Sea Level PressureIn, Max VisibilityMiles, Mean VisibilityMiles, Min VisibilityMiles, Max Wind SpeedMPH, Mean Wind SpeedMPH, Max Gust SpeedMPH,PrecipitationIn, CloudCover, Events, WindDirDegrees
2013-8-1,85,77,68,68,65,57,97,70,43,30.02,29.98,29.94,10,7,0,17,7,22,T,5,Rain,311
2013-8-2,86,76,65,64,62,60,87,66,44,30.04,30.00,29.96,10,10,8,15,5,22,0.00,6,,220
2013-8-3,86,79,72,72,67,63,79,70,60,30.04,29.98,29.95,10,10,6,18,7,23,0.01,6,,265
2013-8-4,81,73,65,66,56,52,79,59,39,30.13,30.10,30.04,10,10,10,16,8,21,0.00,4,,12
2013-8-5,84,73,61,59,56,53,84,61,37,30.12,30.04,29.94,10,10,10,12,4,20,0.00,4,,147
2013-8-6,84,78,72,73,66,59,88,73,58,29.97,29.93,29.91,10,9,6,10,5,14,T,7,Rain,152
2013-8-7,86,80,73,73,73,71,94,82,69,29.97,29.91,29.87,10,6,2,12,5,14,0.00,6,,193
2013-8-8,88,82,75,74,72,71,88,74,59,29.97,29.92,29.87,10,10,8,14,7,18,0.01,7,Rain,194
2013-8-9,85,80,75,76,73,72,94,82,69,30.01,29.96,29.91,9,6,1,15,6,18,0.68,8,Rain,230
2013-8-10,82,78,74,75,72,71,94,84,74,30.12,30.06,30.02,8,4,0,10,1,13,0.54,7,Fog-Rain-Thunderstorm,123
2013-8-11,90,82,73,73,69,64,94,72,50,30.10,30.07,30.03,10,7,2,15,4,18,0.00,6,,282
2013-8-12,85,78,70,74,69,66,93,82,70,30.08,29.99,29.91,10,7,0,21,4,28,0.57,6,Fog-Rain-Thunderstorm,228
2013-8-13,83,74,64,70,66,53,93,74,54,30.06,29.93,29.88,10,7,2,22,9,30,0.38,7,Rain,292
2013-8-14,76,66,56,54,51,49,86,62,38,30.15,30.11,30.06,10,10,10,14,8,20,0.00,1,,14
2013-8-15,78,66,54,55,52,50,86,63,39,30.15,30.11,30.05,10,10,10,14,6,20,0.00,3,,45
2013-8-16,82,70,58,57,56,55,87,65,42,30.12,30.10,30.07,10,10,7,15,6,23,0.00,4,,22
2013-8-17,84,75,66,63,59,54,73,60,47,30.15,30.11,30.08,10,10,9,13,6,16,0.00,6,,54
2013-8-18,85,75,64,68,62,56,87,62,37,30.17,30.11,30.08,10,10,9,14,3,17,0.00,3,,94
2013-8-19,86,77,68,68,65,62,93,71,48,30.13,30.09,30.04,10,9,6,9,3,13,0.00,3,,81
2013-8-20,86,77,68,73,68,64,88,74,59,30.14,30.10,30.07,10,9,2,18,4,23,0.20,4,Rain,88
2013-8-21,90,80,69,71,69,67,97,74,50,30.16,30.10,30.05,10,10,7,15,5,21,0.00,2,,168
2013-8-22,90,82,73,72,69,65,87,66,44,30.12,30.07,30.01,10,9,7,22,6,24,T,5,Rain,267
2013-8-23,89,81,72,70,67,61,93,67,40,30.11,30.06,30.02,10,8,5,14,5,17,0.00,3,,15
2013-8-24,90,78,66,66,61,54,93,62,31,30.23,30.18,30.12,10,9,7,12,5,17,0.00,1,,69
2013-8-25,91,79,66,68,63,60,81,60,38,30.32,30.26,30.20,10,10,9,13,3,20,0.00,2,,196
2013-8-26,90,81,71,71,68,65,90,69,47,30.26,30.18,30.09,10,8,7,15,7,22,0.00,3,,221
2013-8-27,92,83,74,73,72,70,87,70,52,30.11,30.05,29.98,9,8,5,13,7,18,0.00,5,,248
2013-8-28,96,86,75,73,69,64,87,63,39,30.01,29.97,29.92,10,8,5,18,10,25,T,3,,265
2013-8-29,94,85,75,73,69,64,88,65,41,30.03,29.98,29.94,10,9,5,14,5,16,0.00,3,,25
2013-8-30,95,84,73,72,69,66,87,64,41,29.98,29.92,29.83,10,8,4,14,4,23,0.00,2,,235
2013-8-31,95,83,71,73,70,66,79,64,49,29.92,29.85,29.76,10,8,1,33,9,46,0.81,6,Rain-Thunderstorm,181